TimeCST,TemperatureF,Dew PointF,Humidity,Sea Level PressureIn,VisibilityMPH,Wind Direction,Wind SpeedMPH,Gust SpeedMPH,PrecipitationIn,Events,Conditions,WindDirDegrees,DateUTC
12:53 AM,46.0,42.1,86,30.06,10.0,SSE,10.4,-,N/A,,Clear,150,2011-12-13 06:53:00
1:53 AM,45.0,41.0,86,30.07,10.0,SSW,5.8,-,N/A,,Clear,200,2011-12-13 07:53:00
2:53 AM,42.1,41.0,96,30.07,5.0,WSW,5.8,-,N/A,,Clear,250,2011-12-13 08:53:00
3:38 AM,42.8,41.0,93,30.06,5.0,WSW,4.6,-,N/A,,Mostly Cloudy,250,2011-12-13 09:38:00
3:53 AM,43.0,41.0,93,30.00,5.0,West,4.6,-,N/A,,Mostly Cloudy,270,2011-12-13 09:53:00
4:09 AM,42.8,41.0,93,30.07,5.0,West,5.8,-,N/A,,Mostly Cloudy,270,2011-12-13 10:09:00
4:17 AM,42.8,41.0,93,30.07,5.0,West,5.8,-,N/A,,Overcast,270,2011-12-13 10:17:00
4:33 AM,42.8,41.0,93,30.07,4.0,West,5.8,-,N/A,,Overcast,270,2011-12-13 10:33:00
4:46 AM,42.8,41.0,93,30.06,4.0,SW,3.5,-,N/A,,Overcast,230,2011-12-13 10:46:00
5:53 AM,43.0,42.1,97,30.01,4.0,WSW,5.8,-,N/A,,Overcast,240,2011-12-13 11:53:00
6:53 AM,43.0,42.1,97,30.03,4.0,WSW,4.6,-,N/A,,Overcast,250,2011-12-13 12:53:00
7:53 AM,43.0,42.1,97,30.04,3.0,SSW,3.5,-,N/A,,Overcast,210,2011-12-13 13:53:00
7:57 AM,42.8,42.8,100,30.09,2.5,SSW,3.5,-,N/A,,Overcast,210,2011-12-13 13:57:00
8:09 AM,42.8,42.8,100,30.08,1.8,South,4.6,-,N/A,,Overcast,180,2011-12-13 14:09:00
8:53 AM,43.0,42.1,97,30.05,1.8,SW,4.6,-,N/A,,Overcast,220,2011-12-13 14:53:00
9:00 AM,44.6,42.8,93,30.10,3.0,WSW,3.5,-,N/A,,Overcast,240,2011-12-13 15:00:00
9:36 AM,44.6,42.8,93,30.11,4.0,West,4.6,-,N/A,,Scattered Clouds,270,2011-12-13 15:36:00
9:53 AM,45.0,43.0,93,30.05,4.0,Calm,Calm,-,N/A,,Clear,0,2011-12-13 15:53:00
10:53 AM,54.0,48.0,80,30.02,10.0,Variable,4.6,-,N/A,,Clear,0,2011-12-13 16:53:00
11:53 AM,57.0,48.9,74,29.99,10.0,SE,8.1,-,N/A,,Clear,130,2011-12-13 17:53:00
12:53 PM,57.0,48.0,72,29.95,10.0,SE,13.8,-,N/A,,Clear,130,2011-12-13 18:53:00
1:53 PM,57.9,48.0,70,29.89,10.0,SE,20.7,27.6,N/A,,Clear,140,2011-12-13 19:53:00
2:53 PM,59.0,48.9,69,29.87,10.0,SE,16.1,25.3,N/A,,Clear,140,2011-12-13 20:53:00
3:53 PM,59.0,48.0,67,29.87,10.0,SSE,19.6,27.6,N/A,,Clear,150,2011-12-13 21:53:00
4:53 PM,55.9,48.0,75,29.86,10.0,SSE,23.0,31.1,N/A,,Clear,150,2011-12-13 22:53:00
5:53 PM,53.1,48.0,83,29.88,10.0,SSE,20.7,28.8,N/A,,Clear,150,2011-12-13 23:53:00
6:53 PM,52.0,48.0,86,29.87,10.0,SSE,16.1,25.3,N/A,,Clear,160,2011-12-14 00:53:00
7:53 PM,52.0,48.9,89,29.87,10.0,SSE,20.7,27.6,N/A,,Clear,150,2011-12-14 01:53:00
8:17 PM,51.8,48.2,88,29.94,10.0,SSE,16.1,24.2,N/A,,Scattered Clouds,150,2011-12-14 02:17:00
8:29 PM,51.8,50.0,94,29.95,10.0,SSE,12.7,18.4,N/A,,Mostly Cloudy,150,2011-12-14 02:29:00
8:53 PM,53.1,50.0,89,29.90,10.0,SSE,11.5,21.9,N/A,,Overcast,160,2011-12-14 02:53:00